| time (UTC) | temp C | wind direction | speed KPH | gust KPH | rain 1hr cm | rain 24hr cm | rain mn cm | humidity % | barometer mb |
| 20260510091550 | 3 | 295 | 0.0 | 0.0 | 0.00 | 0.00 | 0.00 | 80 | 1020.3 |
| 20260510090045 | 4 | 295 | 0.0 | 0.0 | 0.00 | 0.00 | 0.00 | 78 | 1020.5 |
| 20260510084557 | 5 | 6 | 0.0 | 6.4 | 0.00 | 0.00 | 0.00 | 77 | 1020.6 |
| 20260510083053 | 5 | 353 | 0.0 | 0.0 | 0.00 | 0.00 | 0.00 | 79 | 1020.7 |
| 20260510081538 | 5 | 15 | 0.0 | 0.0 | 0.00 | 0.00 | 0.00 | 77 | 1020.7 |
| 20260510080034 | 6 | 15 | 0.0 | 0.0 | 0.00 | 0.00 | 0.00 | 74 | 1020.7 |
| 20260510074537 | 7 | 1 | 3.2 | 6.4 | 0.00 | 0.00 | 0.00 | 73 | 1020.7 |
| 20260510073045 | 7 | 352 | 4.8 | 6.4 | 0.00 | 0.00 | 0.00 | 73 | 1020.8 |
| 20260510071532 | 7 | 6 | 4.8 | 8.0 | 0.00 | 0.00 | 0.00 | 72 | 1020.9 |
| 20260510070058 | 7 | 35 | 6.4 | 8.0 | 0.00 | 0.00 | 0.00 | 74 | 1020.9 |
| 20260510064555 | 6 | 46 | 3.2 | 6.4 | 0.00 | 0.00 | 0.00 | 75 | 1020.9 |
| 20260510063053 | 6 | 33 | 0.0 | 3.2 | 0.00 | 0.00 | 0.00 | 76 | 1020.9 |
| 20260510061601 | 6 | 288 | 0.0 | 0.0 | 0.00 | 0.00 | 0.00 | 70 | 1020.9 |
| 20260510060048 | 7 | 288 | 0.0 | 0.0 | 0.00 | 0.00 | 0.00 | 75 | 1020.9 |
| 20260510054545 | 6 | 288 | 0.0 | 0.0 | 0.00 | 0.00 | 0.00 | 72 | 1020.8 |
| 20260510053049 | 7 | 234 | 0.0 | 0.0 | 0.00 | 0.00 | 0.00 | 68 | 1020.8 |
| 20260510051542 | 8 | 229 | 0.0 | 0.0 | 0.00 | 0.00 | 0.00 | 68 | 1020.8 |
| 20260510050039 | 8 | 229 | 0.0 | 1.6 | 0.00 | 0.00 | 0.00 | 68 | 1020.8 |
| 20260510044537 | 8 | 342 | 1.6 | 4.8 | 0.00 | 0.00 | 0.00 | 69 | 1020.8 |
| 20260510043033 | 9 | 283 | 0.0 | 1.6 | 0.00 | 0.00 | 0.00 | 65 | 1020.7 |
| 20260510041536 | 10 | 177 | 0.0 | 0.0 | 0.00 | 0.00 | 0.00 | 64 | 1020.6 |
| 20260510040030 | 10 | 160 | 1.6 | 6.4 | 0.00 | 0.00 | 0.00 | 65 | 1020.4 |
| 20260510034529 | 10 | 292 | 0.0 | 3.2 | 0.00 | 0.00 | 0.00 | 60 | 1020.4 |
| 20260510033026 | 11 | 124 | 0.0 | 4.8 | 0.00 | 0.00 | 0.00 | 59 | 1020.0 |
| 20260510031524 | 12 | 124 | 0.0 | 3.2 | 0.00 | 0.00 | 0.00 | 53 | 1019.8 |
| 20260510030032 | 12 | 105 | 3.2 | 4.8 | 0.00 | 0.00 | 0.00 | 50 | 1019.6 |
| 20260510024532 | 14 | 201 | 0.0 | 1.6 | 0.00 | 0.00 | 0.00 | 47 | 1019.4 |
| 20260510023022 | 15 | 211 | 1.6 | 4.8 | 0.00 | 0.00 | 0.00 | 46 | 1019.3 |
| 20260510021553 | 15 | 203 | 1.6 | 3.2 | 0.00 | 0.00 | 0.00 | 47 | 1019.3 |
| 20260510020052 | 16 | 212 | 0.0 | 3.2 | 0.00 | 0.00 | 0.00 | 45 | 1019.3 |
| 20260510014552 | 17 | 181 | 1.6 | 3.2 | 0.00 | 0.00 | 0.00 | 43 | 1019.2 |
| 20260510013101 | 17 | 224 | 1.6 | 4.8 | 0.00 | 0.00 | 0.00 | 42 | 1019.3 |
| 20260510011549 | 17 | 250 | 0.0 | 8.0 | 0.00 | 0.00 | 0.00 | 41 | 1019.3 |
| 20260510010048 | 18 | 195 | 3.2 | 9.7 | 0.00 | 0.00 | 0.00 | 40 | 1019.4 |
| 20260510004545 | 18 | 252 | 8.0 | 12.9 | 0.00 | 0.00 | 0.00 | 40 | 1019.4 |
| 20260510003049 | 18 | 228 | 0.0 | 9.7 | 0.00 | 0.00 | 0.00 | 41 | 1019.4 |
| 20260510001544 | 17 | 225 | 1.6 | 8.0 | 0.00 | 0.00 | 0.00 | 41 | 1019.4 |
| 20260510000044 | 17 | 262 | 3.2 | 12.9 | 0.00 | 0.00 | 0.00 | 40 | 1019.4 |
| 20260509234542 | 18 | 246 | 9.7 | 17.7 | 0.00 | 0.00 | 0.00 | 39 | 1019.3 |
| 20260509233041 | 18 | 261 | 1.6 | 12.9 | 0.00 | 0.00 | 0.00 | 39 | 1019.2 |
| 20260509231543 | 18 | 269 | 6.4 | 17.7 | 0.00 | 0.00 | 0.00 | 38 | 1019.2 |
| 20260509230042 | 18 | 236 | 6.4 | 12.9 | 0.00 | 0.00 | 0.00 | 38 | 1019.4 |
| 20260509224538 | 18 | 293 | 4.8 | 9.7 | 0.00 | 0.00 | 0.00 | 38 | 1019.4 |
| 20260509223036 | 18 | 235 | 3.2 | 11.3 | 0.00 | 0.00 | 0.00 | 37 | 1019.4 |
| 20260509221535 | 18 | 130 | 1.6 | 8.0 | 0.00 | 0.00 | 0.00 | 39 | 1019.6 |
| 20260509220037 | 17 | 254 | 3.2 | 9.7 | 0.00 | 0.00 | 0.00 | 38 | 1019.7 |
| 20260509214533 | 17 | 317 | 0.0 | 3.2 | 0.00 | 0.00 | 0.00 | 39 | 1019.8 |
| 20260509213030 | 17 | 103 | 3.2 | 6.4 | 0.00 | 0.00 | 0.00 | 38 | 1019.8 |
| 20260509211529 | 17 | 195 | 1.6 | 9.7 | 0.00 | 0.00 | 0.00 | 38 | 1019.8 |
| 20260509210030 | 17 | 249 | 0.0 | 4.8 | 0.00 | 0.00 | 0.00 | 38 | 1019.9 |
| 20260509204526 | 17 | 273 | 1.6 | 8.0 | 0.00 | 0.00 | 0.00 | 39 | 1020.0 |
| 20260509203027 | 17 | 283 | 4.8 | 8.0 | 0.00 | 0.00 | 0.00 | 38 | 1019.9 |
| 20260509201524 | 17 | 312 | 4.8 | 9.7 | 0.00 | 0.00 | 0.00 | 37 | 1019.7 |
| 20260509200024 | 17 | 357 | 1.6 | 9.7 | 0.00 | 0.00 | 0.00 | 37 | 1019.7 |
| 20260509194524 | 17 | 184 | 3.2 | 16.1 | 0.00 | 0.00 | 0.00 | 37 | 1019.8 |
| 20260509193021 | 17 | 260 | 3.2 | 12.9 | 0.00 | 0.00 | 0.00 | 37 | 1019.8 |
| 20260509191519 | 17 | 217 | 1.6 | 8.0 | 0.00 | 0.00 | 0.00 | 36 | 1019.9 |
| 20260509190017 | 17 | 178 | 1.6 | 12.9 | 0.00 | 0.00 | 0.00 | 37 | 1019.9 |
| 20260509184520 | 17 | 233 | 4.8 | 9.7 | 0.00 | 0.00 | 0.00 | 38 | 1019.9 |
| 20260509183015 | 17 | 231 | 3.2 | 11.3 | 0.00 | 0.00 | 0.00 | 37 | 1020.0 |
| 20260509181512 | 17 | 216 | 8.0 | 17.7 | 0.00 | 0.00 | 0.00 | 37 | 1019.8 |
| 20260509180009 | 17 | 127 | 4.8 | 11.3 | 0.00 | 0.00 | 0.00 | 37 | 1019.7 |
| 20260509174507 | 17 | 210 | 1.6 | 6.4 | 0.00 | 0.00 | 0.00 | 38 | 1019.7 |
| 20260509173004 | 16 | 221 | 3.2 | 8.0 | 0.00 | 0.00 | 0.00 | 38 | 1019.6 |
| 20260509171502 | 16 | 162 | 0.0 | 6.4 | 0.00 | 0.00 | 0.00 | 40 | 1019.6 |
| 20260509170002 | 16 | 229 | 1.6 | 11.3 | 0.00 | 0.00 | 0.00 | 40 | 1019.6 |
| 20260509164558 | 16 | 243 | 4.8 | 11.3 | 0.00 | 0.00 | 0.00 | 39 | 1019.6 |
| 20260509163110 | 16 | 257 | 0.0 | 6.4 | 0.00 | 0.00 | 0.00 | 39 | 1019.5 |
| 20260509161601 | 16 | 79 | 3.2 | 6.4 | 0.00 | 0.00 | 0.00 | 38 | 1019.4 |
| 20260509160054 | 16 | 185 | 0.0 | 4.8 | 0.00 | 0.00 | 0.00 | 39 | 1019.2 |
| 20260509154549 | 16 | 345 | 1.6 | 8.0 | 0.00 | 0.00 | 0.00 | 39 | 1019.1 |
| 20260509153044 | 15 | 16 | 0.0 | 4.8 | 0.00 | 0.00 | 0.00 | 43 | 1019.1 |
| 20260509151541 | 14 | 24 | 0.0 | 6.4 | 0.00 | 0.00 | 0.00 | 44 | 1018.9 |
| 20260509150037 | 13 | 31 | 3.2 | 6.4 | 0.00 | 0.00 | 0.00 | 46 | 1018.8 |
| 20260509144538 | 13 | 23 | 4.8 | 9.7 | 0.00 | 0.00 | 0.00 | 47 | 1018.7 |
| 20260509143039 | 13 | 14 | 6.4 | 11.3 | 0.00 | 0.00 | 0.00 | 49 | 1018.6 |
| 20260509141538 | 12 | 43 | 3.2 | 8.0 | 0.00 | 0.00 | 0.00 | 49 | 1018.4 |
| 20260509140027 | 12 | 78 | 4.8 | 8.0 | 0.00 | 0.00 | 0.00 | 50 | 1018.3 |
| 20260509134526 | 11 | 37 | 4.8 | 8.0 | 0.00 | 0.00 | 0.00 | 51 | 1018.3 |
| 20260509133025 | 11 | 80 | 1.6 | 4.8 | 0.00 | 0.00 | 0.00 | 53 | 1018.2 |
| 20260509131525 | 10 | 68 | 1.6 | 8.0 | 0.00 | 0.00 | 0.00 | 54 | 1018.0 |
| 20260509130020 | 10 | 35 | 4.8 | 9.7 | 0.00 | 0.00 | 0.00 | 56 | 1017.9 |
| 20260509124517 | 10 | 72 | 0.0 | 9.7 | 0.00 | 0.00 | 0.00 | 56 | 1017.6 |
| 20260509123020 | 9 | 238 | 1.6 | 3.2 | 0.00 | 0.00 | 0.00 | 57 | 1017.4 |
| 20260509121516 | 9 | 70 | 0.0 | 4.8 | 0.00 | 0.00 | 0.00 | 57 | 1017.4 |
| 20260509120010 | 10 | 8 | 3.2 | 4.8 | 0.00 | 0.00 | 0.00 | 57 | 1017.0 |
| 20260509114509 | 10 | 302 | 0.0 | 1.6 | 0.00 | 0.00 | 0.00 | 57 | 1016.9 |
| 20260509113008 | 9 | 330 | 0.0 | 4.8 | 0.00 | 0.00 | 0.00 | 57 | 1016.8 |
| 20260509111507 | 8 | 295 | 0.0 | 0.0 | 0.00 | 0.00 | 0.00 | 58 | 1016.5 |
| 20260509110004 | 8 | 295 | 0.0 | 1.6 | 0.00 | 0.00 | 0.00 | 58 | 1016.5 |
| 20260509104506 | 8 | 295 | 0.0 | 1.6 | 0.00 | 0.00 | 0.00 | 57 | 1016.4 |
| 20260509103103 | 8 | 245 | 0.0 | 1.6 | 0.00 | 0.00 | 0.00 | 58 | 1016.3 |
| 20260509101559 | 8 | 12 | 0.0 | 0.0 | 0.00 | 0.00 | 0.00 | 58 | 1016.0 |
| 20260509100110 | 8 | 303 | 0.0 | 0.0 | 0.00 | 0.00 | 0.00 | 59 | 1015.9 |
| 20260509094555 | 8 | 303 | 0.0 | 1.6 | 0.00 | 0.00 | 0.00 | 58 | 1015.8 |
| 20260509093050 | 8 | 312 | 0.0 | 0.0 | 0.00 | 0.00 | 0.00 | 57 | 1015.6 |
| 20260509091602 | 8 | 312 | 0.0 | 1.6 | 0.00 | 0.00 | 0.00 | 56 | 1015.6 |